Cloud_Cover
2 0 0 0 0 0 0 0 0 0 0 0 0 36 71 47 100 100 100 100 100 100 100 100 100 100 100 100 100 100 100 100 100 100 100 100 100 100 100 99 44 5 4
4 0 1 0 0 0 0 0 0 0 0 0 0 0 35 100 61 100 100 100 100 100 100 100 100 100 100 100 100 100 100 100 100 100 100 100 100 100 100 100 97 95 29
99 100 98 93 6 4 5 2 0 0 0 0 0 0 4 100 100 100 99 100 100 100 100 100 100 100 100 100 100 100 100 100 100 100 99 100 100 100 100 100 100 100 94
100 100 100 100 100 66 5 5 0 0 1 0 0 0 0 44 96 100 100 100 96 100 100 100 100 100 100 100 100 100 100 100 100 100 100 100 100 100 89 100 100 100 100
94 69 92 98 100 100 42 9 5 1 23 3 0 4 4 2 0 73 100 100 100 98 100 100 100 100 100 100 100 100 100 100 100 100 100 100 100 100 100 100 100 100 100
100 100 100 100 100 100 100 94 66 60 70 100 79 1 5 0 3 0 37 100 100 100 100 100 100 100 100 100 100 100 100 100 100 100 100 100 100 100 100 100 100 100 100
95 100 100 100 100 98 98 100 100 100 100 100 100 100 73 5 0 1 2 0 79 100 100 100 100 100 100 100 100 100 100 96 100 100 100 100 100 100 100 100 100 100 100
100 100 100 100 100 100 100 100 100 100 100 66 54 100 100 100 100 59 3 0 0 0 24 86 100 100 100 100 100 100 100 100 100 100 100 100 100 100 100 100 100 100 100
94 79 84 100 100 100 100 100 100 100 94 88 84 12 5 35 78 100 92 5 2 0 0 0 6 94 100 100 100 100 100 100 100 100 100 100 100 100 100 100 100 100 100
64 99 100 100 100 100 100 100 100 100 100 86 53 6 5 5 6 7 89 7 6 2 1 0 0 0 6 55 100 100 100 100 100 100 100 100 100 100 100 100 100 100 100
82 100 99 99 100 100 100 100 100 100 100 85 44 84 38 5 5 72 7 43 51 26 7 5 5 0 0 0 0 39 100 100 100 100 100 100 100 100 100 100 100 100 100
100 59 62 77 100 100 100 100 100 97 82 99 100 75 53 92 41 5 5 73 8 99 56 5 5 5 1 0 0 0 1 5 81 100 100 100 100 100 100 100 100 100 100
100 100 100 100 99 60 36 46 81 88 63 88 98 95 90 97 66 82 36 5 38 30 9 5 2 2 5 5 5 4 2 0 3 5 65 100 100 100 100 100 100 100 100
100 100 100 100 100 100 100 100 99 91 93 75 81 99 100 100 99 100 50 6 31 57 40 6 36 11 5 4 4 3 9 5 5 5 5 5 5 10 80 100 86 100 100
100 100 100 100 100 100 100 100 100 92 72 80 99 100 100 100 80 81 85 71 19 34 78 13 54 99 99 100 52 9 8 10 5 5 5 5 5 5 88 100 100 100 100
100 100 100 100 100 100 100 100 100 90 67 87 94 89 97 98 100 98 86 92 63 76 98 15 50 5 83 55 89 98 100 100 100 100 92 69 43 9 5 13 99 98 40
100 100 100 100 100 100 100 100 100 100 93 78 80 100 100 99 100 94 85 89 100 94 99 100 100 98 80 19 5 21 100 100 100 100 100 94 74 47 49 5 5 21 39
100 100 100 100 100 100 100 100 100 100 100 99 100 100 79 100 100 100 92 84 73 65 100 100 100 99 100 92 57 22 43 96 100 100 92 11 18 88 76 5 5 68 56
100 100 100 100 100 100 100 100 100 100 100 100 100 100 100 100 100 100 100 100 98 77 43 99 100 100 100 100 100 100 100 100 94 98 100 98 38 26 92 25 82 100 100
100 100 100 100 84 94 100 100 100 100 100 100 100 100 100 100 100 100 100 100 100 100 100 87 100 100 100 100 100 100 100 100 100 100 100 85 29 21 7 6 54 87 100
100 100 100 100 100 100 100 100 100 100 100 100 100 100 100 100 100 100 100 100 100 100 100 100 100 100 100 100 100 100 100 100 100 100 100 100 100 94 91 92 87 86 100
100 100 100 100 100 100 100 100 100 100 100 100 100 100 100 100 100 100 100 100 100 100 100 100 100 100 100 100 100 100 100 100 100 53 46 66 99 100 100 99 100 100 100
100 100 100 100 100 96 82 100 91 96 100 100 97 100 100 93 100 98 92 99 99 100 100 96 100 99 100 100 100 100 100 91 98 37 90 56 5 5 16 27 100 100 100
100 100 100 100 100 100 99 96 70 78 100 100 100 100 76 58 70 82 81 7 5 6 18 16 14 8 20 17 32 93 96 74 16 17 8 13 37 27 6 5 55 91 100
89 100 100 100 100 100 93 57 94 78 8 11 5 13 9 5 5 100 100 93 30 5 0 5 46 99 98 100 100 98 100 100 99 59 93 100 99 61 7 5 5 4 5
88 86 100 100 100 100 100 100 100 96 67 45 42 20 42 98 78 100 100 49 35 4 5 5 5 8 5 42 29 37 26 11 51 98 18 12 5 14 88 3 0 1 85